ITY2016 NWWW-NFFN

Flight info

Callsign ITY2016
Flight time 1h 40m
Altitude 37000
Route LTO3E LTO B599 AGUTA
Aircraft B738/M-SDE2E3FGHIRWXY/LB1

Departure

Time 2026-04-23 10:56
Airport La Tontouta International Airport (NWWW)

Arrival

Time 2026-04-23 12:37
Airport Nadi International Airport (NFFN)
Time Latitude Longitude Altitude Speed Heading
2026-04-23 10:22 -22.01448 166.21720 61 ft 0 kts 31°
2026-04-23 10:29 -22.01448 166.21719 -21 ft 0 kts 31°
2026-04-23 10:44 -22.01455 166.21715 53 ft 2 kts 31°
2026-04-23 10:45 -22.01466 166.21707 55 ft 2 kts 31°
2026-04-23 10:45 -22.01478 166.21700 52 ft 2 kts 31°
2026-04-23 10:45 -22.01490 166.21692 52 ft 2 kts 29°
2026-04-23 10:45 -22.01501 166.21686 52 ft 2 kts 25°
2026-04-23 10:46 -22.01511 166.21682 53 ft 1 kts 13°
2026-04-23 10:46 -22.01517 166.21680 56 ft 1 kts 356°
2026-04-23 10:46 -22.01523 166.21681 53 ft 1 kts 334°
2026-04-23 10:46 -22.01528 166.21684 52 ft 1 kts 316°
2026-04-23 10:47 -22.01532 166.21689 52 ft 1 kts 307°
2026-04-23 10:47 -22.01535 166.21693 52 ft 1 kts 303°
2026-04-23 10:47 -22.01538 166.21698 52 ft 0 kts 301°
2026-04-23 10:48 -22.01538 166.21699 52 ft 0 kts 301°
2026-04-23 10:49 -22.01537 166.21696 52 ft 2 kts 300°
2026-04-23 10:49 -22.01512 166.21649 57 ft 10 kts 300°
2026-04-23 10:50 -22.01471 166.21578 52 ft 11 kts 301°
2026-04-23 10:50 -22.01430 166.21506 60 ft 11 kts 301°
2026-04-23 10:50 -22.01417 166.21438 60 ft 0 kts 241°
2026-04-23 10:50 -22.01418 166.21438 60 ft 0 kts 241°
2026-04-23 10:51 -22.01420 166.21434 60 ft 1 kts 234°
2026-04-23 10:51 -22.01433 166.21418 54 ft 4 kts 223°
2026-04-23 10:51 -22.01462 166.21389 55 ft 2 kts 226°
2026-04-23 10:51 -22.01469 166.21366 54 ft 7 kts 269°
2026-04-23 10:52 -22.01454 166.21302 54 ft 9 kts 297°
2026-04-23 10:52 -22.01422 166.21241 53 ft 10 kts 301°
2026-04-23 10:52 -22.01375 166.21158 53 ft 16 kts 302°
2026-04-23 10:52 -22.01310 166.21044 57 ft 21 kts 300°
2026-04-23 10:53 -22.01233 166.20907 56 ft 21 kts 301°
2026-04-23 10:53 -22.01157 166.20772 53 ft 21 kts 301°
2026-04-23 10:53 -22.01072 166.20623 52 ft 26 kts 302°
2026-04-23 10:53 -22.00977 166.20451 47 ft 26 kts 300°
2026-04-23 10:54 -22.00886 166.20290 42 ft 24 kts 302°
2026-04-23 10:54 -22.00801 166.20141 40 ft 23 kts 301°
2026-04-23 10:54 -22.00728 166.20025 39 ft 16 kts 326°
2026-04-23 10:54 -22.00688 166.19980 38 ft 3 kts 245°
2026-04-23 10:55 -22.00715 166.19975 38 ft 5 kts 148°
2026-04-23 10:55 -22.00727 166.20006 38 ft 0 kts 118°
2026-04-23 10:55 -22.00744 166.20039 37 ft 26 kts 120°
2026-04-23 10:55 -22.00961 166.20427 47 ft 93 kts 121°
2026-04-23 10:56 -22.01396 166.21200 54 ft 145 kts 120°
2026-04-23 10:56 -22.01942 166.22188 454 ft 154 kts 121°
2026-04-23 10:56 -22.02536 166.23262 1192 ft 169 kts 119°
2026-04-23 10:56 -22.03117 166.24303 2422 ft 163 kts 120°
2026-04-23 10:57 -22.03750 166.25374 3009 ft 181 kts 125°
2026-04-23 10:57 -22.04850 166.26213 3211 ft 211 kts 163°
2026-04-23 10:57 -22.06374 166.26031 3399 ft 237 kts 205°
2026-04-23 10:57 -22.07825 166.25018 3619 ft 262 kts 222°
2026-04-23 10:58 -22.08732 166.23279 4144 ft 275 kts 259°
2026-04-23 10:58 -22.08558 166.21286 4974 ft 273 kts 291°
2026-04-23 10:58 -22.07538 166.19603 5943 ft 265 kts 316°
2026-04-23 10:58 -22.05993 166.18552 6829 ft 267 kts 341°
2026-04-23 10:59 -22.04132 166.18362 7470 ft 277 kts
2026-04-23 10:59 -22.02334 166.19158 8194 ft 286 kts 35°
2026-04-23 10:59 -22.01085 166.20844 8944 ft 296 kts 66°
2026-04-23 10:59 -22.00799 166.23052 9679 ft 305 kts 98°
2026-04-23 11:00 -22.01347 166.25285 10331 ft 315 kts 100°
2026-04-23 11:00 -22.01244 166.27669 10511 ft 336 kts 71°
2026-04-23 11:00 -22.00327 166.30057 10775 ft 354 kts 63°
2026-04-23 11:00 -21.99250 166.32489 11305 ft 363 kts 62°
2026-04-23 11:01 -21.98176 166.34974 11990 ft 368 kts 63°
2026-04-23 11:01 -21.97132 166.37514 12685 ft 373 kts 64°
2026-04-23 11:01 -21.96120 166.40106 13435 ft 375 kts 65°
2026-04-23 11:01 -21.95129 166.42733 14116 ft 381 kts 65°
2026-04-23 11:02 -21.94143 166.45404 14755 ft 385 kts 66°
2026-04-23 11:02 -21.93158 166.48111 15345 ft 392 kts 65°
2026-04-23 11:02 -21.92174 166.50828 15990 ft 396 kts 65°
2026-04-23 11:02 -21.91177 166.53612 16692 ft 398 kts 65°
2026-04-23 11:03 -21.90179 166.56414 17366 ft 403 kts 65°
2026-04-23 11:03 -21.89168 166.59244 17966 ft 407 kts 65°
2026-04-23 11:03 -21.88144 166.62107 18548 ft 412 kts 65°
2026-04-23 11:03 -21.87107 166.65002 19046 ft 416 kts 65°
2026-04-23 11:04 -21.86059 166.67922 19552 ft 420 kts 64°
2026-04-23 11:04 -21.85001 166.70872 20075 ft 424 kts 64°
2026-04-23 11:04 -21.83931 166.73852 20584 ft 428 kts 64°
2026-04-23 11:04 -21.82854 166.76850 21095 ft 432 kts 64°
2026-04-23 11:05 -21.81765 166.79880 21577 ft 436 kts 64°
2026-04-23 11:05 -21.80679 166.82898 22055 ft 440 kts 64°
2026-04-23 11:05 -21.79567 166.85988 22527 ft 444 kts 64°
2026-04-23 11:05 -21.78448 166.89094 22989 ft 448 kts 63°
2026-04-23 11:06 -21.76174 166.95403 23879 ft 455 kts 63°
2026-04-23 11:06 -21.75024 166.98589 24270 ft 458 kts 63°
2026-04-23 11:06 -21.73867 167.01794 24668 ft 460 kts 63°
2026-04-23 11:07 -21.72702 167.05021 25065 ft 463 kts 63°
2026-04-23 11:07 -21.71540 167.08234 25428 ft 466 kts 63°
2026-04-23 11:07 -21.70359 167.11498 25805 ft 469 kts 63°
2026-04-23 11:07 -21.69172 167.14775 26172 ft 471 kts 62°
2026-04-23 11:08 -21.67976 167.18075 26534 ft 474 kts 62°
2026-04-23 11:08 -21.66774 167.21390 26891 ft 477 kts 62°
2026-04-23 11:08 -21.65581 167.24676 27226 ft 479 kts 62°
2026-04-23 11:08 -21.64363 167.28029 27563 ft 482 kts 62°
2026-04-23 11:09 -21.63141 167.31392 27902 ft 484 kts 62°
2026-04-23 11:09 -21.61917 167.34761 28297 ft 485 kts 62°
2026-04-23 11:09 -21.60685 167.38146 28611 ft 487 kts 62°
2026-04-23 11:09 -21.59445 167.41549 28899 ft 490 kts 62°
2026-04-23 11:10 -21.58197 167.44973 29190 ft 493 kts 62°
2026-04-23 11:10 -21.56942 167.48412 29501 ft 495 kts 62°
2026-04-23 11:10 -21.55682 167.51866 29797 ft 497 kts 61°
2026-04-23 11:10 -21.54413 167.55339 30080 ft 500 kts 61°
2026-04-23 11:11 -21.53138 167.58827 30330 ft 502 kts 61°
2026-04-23 11:11 -21.51857 167.62328 30538 ft 504 kts 61°
2026-04-23 11:11 -21.50571 167.65843 30752 ft 506 kts 61°
2026-04-23 11:11 -21.49280 167.69367 30989 ft 508 kts 61°
2026-04-23 11:12 -21.47999 167.72863 31230 ft 510 kts 61°
2026-04-23 11:12 -21.46702 167.76399 31540 ft 509 kts 61°
2026-04-23 11:12 -21.45403 167.79943 31887 ft 508 kts 61°
2026-04-23 11:12 -21.44109 167.83469 32222 ft 507 kts 61°
2026-04-23 11:13 -21.42811 167.86998 32525 ft 508 kts 61°
2026-04-23 11:13 -21.41515 167.90520 32844 ft 507 kts 61°
2026-04-23 11:13 -21.40216 167.94045 33181 ft 507 kts 61°
2026-04-23 11:13 -21.38921 167.97559 33503 ft 507 kts 61°
2026-04-23 11:14 -21.37622 168.01080 33809 ft 507 kts 61°
2026-04-23 11:14 -21.36342 168.04548 34106 ft 506 kts 61°
2026-04-23 11:14 -21.35043 168.08067 34418 ft 505 kts 61°
2026-04-23 11:14 -21.33751 168.11564 34741 ft 503 kts 60°
2026-04-23 11:15 -21.32461 168.15053 35023 ft 503 kts 60°
2026-04-23 11:15 -21.31169 168.18543 35273 ft 503 kts 60°
2026-04-23 11:15 -21.29876 168.22032 35536 ft 503 kts 60°
2026-04-23 11:15 -21.28595 168.25522 35817 ft 503 kts 60°
2026-04-23 11:16 -21.27321 168.29024 36100 ft 502 kts 60°
2026-04-23 11:16 -21.26072 168.32471 36376 ft 501 kts 60°
2026-04-23 11:16 -21.24811 168.35953 36670 ft 500 kts 60°
2026-04-23 11:16 -21.23551 168.39427 36940 ft 500 kts 60°
2026-04-23 11:17 -21.22286 168.42907 37115 ft 501 kts 60°
2026-04-23 11:17 -21.19731 168.49909 37104 ft 505 kts 60°
2026-04-23 11:18 -21.17186 168.56887 37092 ft 499 kts 60°
2026-04-23 11:18 -21.14679 168.63754 37105 ft 496 kts 60°
2026-04-23 11:19 -21.12160 168.70629 37085 ft 496 kts 60°
2026-04-23 11:19 -21.09635 168.77509 37100 ft 495 kts 60°
2026-04-23 11:20 -21.07111 168.84379 37106 ft 495 kts 60°
2026-04-23 11:20 -21.04596 168.91213 37101 ft 496 kts 60°
2026-04-23 11:21 -21.02060 168.98098 37095 ft 497 kts 60°
2026-04-23 11:21 -20.99532 169.04954 37097 ft 498 kts 60°
2026-04-23 11:22 -20.96978 169.11867 37101 ft 499 kts 60°
2026-04-23 11:22 -20.94420 169.18785 37092 ft 500 kts 60°
2026-04-23 11:23 -20.91872 169.25664 37088 ft 500 kts 60°
2026-04-23 11:23 -20.89305 169.32586 37093 ft 501 kts 60°
2026-04-23 11:24 -20.86731 169.39514 37091 ft 501 kts 60°
2026-04-23 11:24 -20.84154 169.46445 37077 ft 500 kts 60°
2026-04-23 11:25 -20.81597 169.53310 37055 ft 500 kts 60°
2026-04-23 11:25 -20.79029 169.60197 37078 ft 498 kts 60°
2026-04-23 11:26 -20.76459 169.67074 37080 ft 497 kts 60°
2026-04-23 11:26 -20.73895 169.73929 37081 ft 496 kts 60°
2026-04-23 11:27 -20.71330 169.80775 37072 ft 496 kts 60°
2026-04-23 11:27 -20.68769 169.87602 37078 ft 495 kts 60°
2026-04-23 11:28 -20.66208 169.94419 37080 ft 494 kts 60°
2026-04-23 11:28 -20.63644 170.01233 37079 ft 494 kts 60°
2026-04-23 11:29 -20.61098 170.07992 37080 ft 494 kts 60°
2026-04-23 11:29 -20.58529 170.14802 37073 ft 494 kts 60°
2026-04-23 11:30 -20.55956 170.21616 37073 ft 494 kts 60°
2026-04-23 11:30 -20.53383 170.28418 37075 ft 494 kts 60°
2026-04-23 11:31 -20.50822 170.35182 37068 ft 494 kts 61°
2026-04-23 11:31 -20.48250 170.41966 37070 ft 493 kts 61°
2026-04-23 11:32 -20.45678 170.48741 37062 ft 493 kts 61°
2026-04-23 11:32 -20.43102 170.55509 37058 ft 492 kts 61°
2026-04-23 11:33 -20.40526 170.62272 37066 ft 491 kts 61°
2026-04-23 11:33 -20.37953 170.69016 37064 ft 491 kts 61°
2026-04-23 11:34 -20.35382 170.75747 37062 ft 490 kts 61°
2026-04-23 11:34 -20.32824 170.82439 37062 ft 490 kts 61°
2026-04-23 11:35 -20.30251 170.89160 37063 ft 489 kts 61°
2026-04-23 11:35 -20.27678 170.95871 37066 ft 489 kts 62°
2026-04-23 11:36 -20.25100 171.02586 37061 ft 489 kts 62°
2026-04-23 11:36 -20.22527 171.09285 37057 ft 488 kts 62°
2026-04-23 11:37 -20.19964 171.15942 37064 ft 488 kts 62°
2026-04-23 11:37 -20.17381 171.22641 37061 ft 489 kts 62°
2026-04-23 11:38 -20.14792 171.29348 37048 ft 489 kts 62°
2026-04-23 11:38 -20.12201 171.36055 37058 ft 490 kts 62°
2026-04-23 11:39 -20.09620 171.42725 37057 ft 490 kts 62°
2026-04-23 11:39 -20.07018 171.49441 37057 ft 491 kts 62°
2026-04-23 11:40 -20.04415 171.56152 37052 ft 491 kts 62°
2026-04-23 11:40 -20.02243 171.61744 37055 ft 491 kts 62°
2026-04-23 11:41 -19.99630 171.68465 37067 ft 491 kts 62°
2026-04-23 11:41 -19.97014 171.75184 37051 ft 491 kts 62°
2026-04-23 11:42 -19.94395 171.81903 37033 ft 490 kts 62°
2026-04-23 11:42 -19.91800 171.88551 37040 ft 489 kts 62°
2026-04-23 11:43 -19.89191 171.95227 37051 ft 488 kts 62°
2026-04-23 11:43 -19.86586 172.01882 37043 ft 487 kts 62°
2026-04-23 11:44 -19.83982 172.08528 37050 ft 486 kts 62°
2026-04-23 11:44 -19.81395 172.15121 37048 ft 486 kts 62°
2026-04-23 11:45 -19.78791 172.21750 37045 ft 485 kts 62°
2026-04-23 11:45 -19.76189 172.28366 37050 ft 485 kts 62°
2026-04-23 11:46 -19.73584 172.34978 37050 ft 484 kts 62°
2026-04-23 11:46 -19.70982 172.41575 37042 ft 484 kts 62°
2026-04-23 11:47 -19.68396 172.48125 37046 ft 484 kts 62°
2026-04-23 11:47 -19.65788 172.54722 37047 ft 484 kts 62°
2026-04-23 11:48 -19.63177 172.61319 37032 ft 484 kts 62°
2026-04-23 11:48 -19.60580 172.67872 37042 ft 484 kts 62°
2026-04-23 11:49 -19.57967 172.74457 37044 ft 484 kts 62°
2026-04-23 11:49 -19.55355 172.81033 37045 ft 484 kts 62°
2026-04-23 11:50 -19.52750 172.87579 37042 ft 484 kts 62°
2026-04-23 11:50 -19.50132 172.94153 37041 ft 484 kts 62°
2026-04-23 11:51 -19.47505 173.00743 37039 ft 484 kts 62°
2026-04-23 11:51 -19.44879 173.07318 37040 ft 484 kts 62°
2026-04-23 11:52 -19.42268 173.13850 37041 ft 484 kts 62°
2026-04-23 11:52 -19.39635 173.20430 37043 ft 484 kts 62°
2026-04-23 11:53 -19.37007 173.26989 37034 ft 483 kts 62°
2026-04-23 11:53 -19.34380 173.33538 37040 ft 483 kts 62°
2026-04-23 11:54 -19.31767 173.40042 37031 ft 482 kts 62°
2026-04-23 11:54 -19.29144 173.46565 37037 ft 481 kts 62°
2026-04-23 11:55 -19.26522 173.53078 37035 ft 480 kts 62°
2026-04-23 11:55 -19.23902 173.59576 37037 ft 479 kts 62°
2026-04-23 11:56 -19.21284 173.66062 37035 ft 478 kts 62°
2026-04-23 11:56 -19.18686 173.72491 37032 ft 478 kts 62°
2026-04-23 11:57 -19.16071 173.78954 37035 ft 477 kts 62°
2026-04-23 11:57 -19.13450 173.85425 37036 ft 477 kts 62°
2026-04-23 11:58 -19.10846 173.91846 37028 ft 477 kts 62°
2026-04-23 11:58 -19.08229 173.98290 37034 ft 476 kts 62°
2026-04-23 11:59 -19.05614 174.04724 37034 ft 476 kts 62°
2026-04-23 11:59 -19.03014 174.11114 37033 ft 476 kts 62°
2026-04-23 12:00 -19.00397 174.17538 37026 ft 475 kts 62°
2026-04-23 12:00 -18.97781 174.23950 37032 ft 474 kts 62°
2026-04-23 12:01 -18.95163 174.30361 37020 ft 474 kts 62°
2026-04-23 12:01 -18.92540 174.36777 37040 ft 475 kts 62°
2026-04-23 12:02 -18.89926 174.43163 37027 ft 476 kts 62°
2026-04-23 12:02 -18.87296 174.49579 37033 ft 477 kts 62°
2026-04-23 12:03 -18.84656 174.56015 37035 ft 478 kts 62°
2026-04-23 12:03 -18.82009 174.62461 37025 ft 478 kts 62°
2026-04-23 12:04 -18.79375 174.68867 37029 ft 479 kts 62°
2026-04-23 12:04 -18.76718 174.75323 37019 ft 479 kts 62°
2026-04-23 12:05 -18.74078 174.81730 37030 ft 479 kts 62°
2026-04-23 12:05 -18.71420 174.88173 37024 ft 478 kts 62°
2026-04-23 12:06 -18.68765 174.94604 37020 ft 477 kts 62°
2026-04-23 12:06 -18.64798 175.04199 37029 ft 476 kts 62°
2026-04-23 12:07 -18.62155 175.10590 37022 ft 475 kts 62°
2026-04-23 12:07 -18.59510 175.16982 37023 ft 475 kts 62°
2026-04-23 12:08 -18.56886 175.23319 37023 ft 474 kts 62°
2026-04-23 12:08 -18.54248 175.29682 37020 ft 474 kts 62°
2026-04-23 12:09 -18.51608 175.36042 37023 ft 474 kts 62°
2026-04-23 12:09 -18.48961 175.42410 36928 ft 476 kts 62°
2026-04-23 12:10 -18.47624 175.45620 36655 ft 479 kts 62°
2026-04-23 12:10 -18.46290 175.48827 36410 ft 476 kts 62°
2026-04-23 12:10 -18.44979 175.51979 36173 ft 474 kts 62°
2026-04-23 12:10 -18.43652 175.55166 35934 ft 475 kts 62°
2026-04-23 12:11 -18.42325 175.58350 35699 ft 475 kts 62°
2026-04-23 12:11 -18.40996 175.61536 35462 ft 475 kts 62°
2026-04-23 12:11 -18.39665 175.64724 35237 ft 474 kts 62°
2026-04-23 12:11 -18.38337 175.67906 35003 ft 474 kts 62°
2026-04-23 12:12 -18.37023 175.71053 34759 ft 474 kts 63°
2026-04-23 12:12 -18.35697 175.74227 34537 ft 474 kts 63°
2026-04-23 12:12 -18.34366 175.77410 34312 ft 474 kts 63°
2026-04-23 12:12 -18.33036 175.80588 34089 ft 474 kts 63°
2026-04-23 12:13 -18.31704 175.83765 33842 ft 474 kts 63°
2026-04-23 12:13 -18.30368 175.86945 33591 ft 475 kts 63°
2026-04-23 12:13 -18.29031 175.90125 33338 ft 476 kts 63°
2026-04-23 12:13 -18.27708 175.93272 32921 ft 475 kts 63°
2026-04-23 12:14 -18.26367 175.96461 32114 ft 477 kts 63°
2026-04-23 12:14 -18.25020 175.99661 31369 ft 478 kts 63°
2026-04-23 12:14 -18.23678 176.02851 30823 ft 474 kts 63°
2026-04-23 12:14 -18.22347 176.06015 30235 ft 471 kts 63°
2026-04-23 12:15 -18.21022 176.09161 29594 ft 468 kts 63°
2026-04-23 12:15 -18.19705 176.12287 28977 ft 464 kts 63°
2026-04-23 12:15 -18.18419 176.15339 28393 ft 461 kts 63°
2026-04-23 12:15 -18.17124 176.18409 27816 ft 457 kts 63°
2026-04-23 12:16 -18.15841 176.21447 27239 ft 453 kts 63°
2026-04-23 12:16 -18.14565 176.24469 26693 ft 449 kts 63°
2026-04-23 12:16 -18.13301 176.27459 26134 ft 446 kts 63°
2026-04-23 12:16 -18.12040 176.30440 25574 ft 443 kts 63°
2026-04-23 12:17 -18.10790 176.33394 25001 ft 441 kts 63°
2026-04-23 12:17 -18.09560 176.36299 24445 ft 439 kts 63°
2026-04-23 12:17 -18.08319 176.39229 23881 ft 437 kts 63°
2026-04-23 12:17 -18.07084 176.42144 23262 ft 436 kts 63°
2026-04-23 12:18 -18.05855 176.45044 22645 ft 433 kts 64°
2026-04-23 12:18 -18.04633 176.47927 22068 ft 429 kts 63°
2026-04-23 12:18 -18.03420 176.50785 21504 ft 425 kts 64°
2026-04-23 12:18 -18.02234 176.53579 20960 ft 422 kts 64°
2026-04-23 12:19 -18.01040 176.56392 20408 ft 419 kts 63°
2026-04-23 12:19 -17.99856 176.59182 19840 ft 417 kts 64°
2026-04-23 12:19 -17.98675 176.61956 19277 ft 415 kts 63°
2026-04-23 12:19 -17.97498 176.64720 18726 ft 413 kts 64°
2026-04-23 12:20 -17.96329 176.67465 18151 ft 411 kts 65°
2026-04-23 12:20 -17.95166 176.70204 17548 ft 408 kts 65°
2026-04-23 12:20 -17.94026 176.72887 16996 ft 405 kts 65°
2026-04-23 12:20 -17.92882 176.75573 16453 ft 401 kts 65°
2026-04-23 12:21 -17.91970 176.78331 15920 ft 399 kts 75°
2026-04-23 12:21 -17.91366 176.81159 15388 ft 396 kts 76°
2026-04-23 12:21 -17.90794 176.83981 14852 ft 393 kts 77°
2026-04-23 12:21 -17.90227 176.86772 14317 ft 390 kts 76°
2026-04-23 12:22 -17.89665 176.89509 13779 ft 378 kts 76°
2026-04-23 12:22 -17.89107 176.92194 13216 ft 370 kts 77°
2026-04-23 12:22 -17.88558 176.94809 12699 ft 365 kts 76°
2026-04-23 12:22 -17.88006 176.97407 12178 ft 364 kts 76°
2026-04-23 12:23 -17.87462 176.99956 11668 ft 357 kts 76°
2026-04-23 12:23 -17.86929 177.02460 11169 ft 349 kts 76°
2026-04-23 12:23 -17.86401 177.04935 10766 ft 342 kts 76°
2026-04-23 12:23 -17.85896 177.07306 10581 ft 325 kts 77°
2026-04-23 12:24 -17.85413 177.09569 10445 ft 311 kts 76°
2026-04-23 12:24 -17.84949 177.11748 10305 ft 299 kts 76°
2026-04-23 12:24 -17.84501 177.13843 10171 ft 289 kts 77°
2026-04-23 12:24 -17.84066 177.15878 10088 ft 283 kts 76°
2026-04-23 12:25 -17.83635 177.17888 9990 ft 281 kts 76°
2026-04-23 12:25 -17.83207 177.19884 9720 ft 286 kts 76°
2026-04-23 12:25 -17.82764 177.21954 9345 ft 293 kts 76°
2026-04-23 12:25 -17.82311 177.24068 8962 ft 300 kts 77°
2026-04-23 12:26 -17.81850 177.26222 8629 ft 304 kts 76°
2026-04-23 12:26 -17.81527 177.28414 8247 ft 303 kts 91°
2026-04-23 12:26 -17.82036 177.30538 7914 ft 300 kts 115°
2026-04-23 12:26 -17.83291 177.32266 7587 ft 298 kts 136°
2026-04-23 12:27 -17.84668 177.33851 7240 ft 293 kts 119°
2026-04-23 12:27 -17.85476 177.35750 7052 ft 283 kts 114°
2026-04-23 12:27 -17.86627 177.37352 7034 ft 272 kts 141°
2026-04-23 12:27 -17.88332 177.38193 7030 ft 275 kts 168°
2026-04-23 12:28 -17.90234 177.38113 7033 ft 277 kts 197°
2026-04-23 12:28 -17.91905 177.37131 6946 ft 280 kts 223°
2026-04-23 12:28 -17.92976 177.35458 6836 ft 273 kts 252°
2026-04-23 12:28 -17.93081 177.33504 6568 ft 275 kts 284°
2026-04-23 12:29 -17.92074 177.31782 6132 ft 282 kts 323°
2026-04-23 12:29 -17.90441 177.30601 5619 ft 295 kts 321°
2026-04-23 12:29 -17.89369 177.28801 5246 ft 299 kts 286°
2026-04-23 12:29 -17.89368 177.26641 4943 ft 298 kts 252°
2026-04-23 12:30 -17.90394 177.24799 4689 ft 289 kts 231°
2026-04-23 12:30 -17.91696 177.23206 4351 ft 287 kts 217°
2026-04-23 12:30 -17.93488 177.22446 4095 ft 276 kts 180°
2026-04-23 12:30 -17.94716 177.22627 4009 ft 264 kts 155°
2026-04-23 12:31 -17.96338 177.24301 3871 ft 245 kts 108°
2026-04-23 12:31 -17.96389 177.26049 3794 ft 242 kts 74°
2026-04-23 12:31 -17.95711 177.27656 3697 ft 244 kts 53°
2026-04-23 12:31 -17.94463 177.28864 3634 ft 245 kts 42°
2026-04-23 12:32 -17.93153 177.30015 3519 ft 244 kts 41°
2026-04-23 12:32 -17.92291 177.30743 3464 ft 235 kts 41°
2026-04-23 12:32 -17.91038 177.31767 3295 ft 222 kts 40°
2026-04-23 12:32 -17.89841 177.32736 3030 ft 213 kts 40°
2026-04-23 12:33 -17.88692 177.33664 2758 ft 205 kts 40°
2026-04-23 12:33 -17.87586 177.34560 2509 ft 196 kts 40°
2026-04-23 12:33 -17.86525 177.35420 2256 ft 189 kts 40°
2026-04-23 12:33 -17.85503 177.36248 2013 ft 182 kts 40°
2026-04-23 12:34 -17.84529 177.37037 1784 ft 171 kts 40°
2026-04-23 12:34 -17.83614 177.37778 1566 ft 161 kts 40°
2026-04-23 12:34 -17.82758 177.38473 1355 ft 150 kts 40°
2026-04-23 12:34 -17.81969 177.39111 1201 ft 144 kts 40°
2026-04-23 12:35 -17.81180 177.39751 1016 ft 141 kts 40°
2026-04-23 12:35 -17.80422 177.40366 841 ft 134 kts 38°
2026-04-23 12:35 -17.79680 177.40967 673 ft 137 kts 39°
2026-04-23 12:35 -17.78926 177.41571 520 ft 134 kts 39°
2026-04-23 12:36 -17.78165 177.42174 314 ft 138 kts 41°
2026-04-23 12:36 -17.77438 177.42772 118 ft 128 kts 38°
2026-04-23 12:36 -17.76767 177.43320 43 ft 113 kts 37°
2026-04-23 12:36 -17.76270 177.43716 45 ft 65 kts 38°
2026-04-23 12:37 -17.75986 177.43946 46 ft 49 kts 37°
2026-04-23 12:37 -17.75725 177.44155 45 ft 46 kts 38°
2026-04-23 12:37 -17.75486 177.44348 46 ft 42 kts 37°
2026-04-23 12:37 -17.75269 177.44522 43 ft 34 kts 37°
2026-04-23 12:38 -17.75119 177.44648 46 ft 18 kts 54°
2026-04-23 12:38 -17.75121 177.44737 46 ft 10 kts 101°
2026-04-23 12:38 -17.75134 177.44807 46 ft 10 kts 101°
2026-04-23 12:38 -17.75153 177.44868 46 ft 8 kts 106°
2026-04-23 12:39 -17.75155 177.44925 46 ft 8 kts 74°
2026-04-23 12:39 -17.75112 177.44963 46 ft 9 kts 24°
2026-04-23 12:39 -17.75057 177.44986 46 ft 9 kts 59°
2026-04-23 12:39 -17.75059 177.45051 44 ft 10 kts 104°
2026-04-23 12:40 -17.75079 177.45138 46 ft 13 kts 104°
2026-04-23 12:40 -17.75120 177.45188 46 ft 8 kts 150°
2026-04-23 12:40 -17.75140 177.45193 46 ft 7 kts 179°
2026-04-23 12:40 -17.75195 177.45176 46 ft 2 kts 193°
2026-04-23 12:41 -17.75216 177.45172 46 ft 0 kts 191°